| time (UTC) | temp F | wind direction | speed knots | gust knots | rain 1hr in | rain 24hr in | rain mn in | humidity % | barometer mb |
| 20260508211626 | 46 | 297 | 3.5 | 4.3 | 0.00 | 0.00 | 0.00 | 72 | 1012.3 |
| 20260508210124 | 48 | 306 | 4.3 | 7.8 | 0.00 | 0.00 | 0.00 | 63 | 1011.9 |
| 20260508205627 | 48 | 356 | 7.8 | 11.3 | 0.00 | 0.00 | 0.00 | 60 | 1011.6 |
| 20260508205124 | 49 | 296 | 2.6 | 4.3 | 0.00 | 0.00 | 0.00 | 56 | 1011.6 |
| 20260508204625 | 50 | 342 | 6.1 | 8.7 | 0.00 | 0.00 | 0.00 | 52 | 1011.6 |
| 20260508203623 | 52 | 332 | 2.6 | 4.3 | 0.00 | 0.00 | 0.00 | 49 | 1011.2 |
| 20260508202622 | 52 | 341 | 1.7 | 2.6 | 0.00 | 0.00 | 0.00 | 49 | 1011.2 |
| 20260508193622 | 55 | 325 | 3.5 | 5.2 | 0.00 | 0.00 | 0.00 | 45 | 1010.9 |
| 20260508193119 | 52 | 338 | 0.9 | 1.7 | 0.00 | 0.00 | 0.00 | 48 | 1010.5 |
| 20260508192620 | 52 | 306 | 2.6 | 5.2 | 0.00 | 0.00 | 0.00 | 48 | 1010.7 |
| 20260508192117 | 52 | 337 | 2.6 | 4.3 | 0.00 | 0.00 | 0.00 | 49 | 1010.9 |
| 20260508191617 | 52 | 316 | 2.6 | 5.2 | 0.00 | 0.00 | 0.00 | 47 | 1010.9 |
| 20260508191119 | 52 | 0 | 2.6 | 5.2 | 0.00 | 0.00 | 0.00 | 47 | 1010.9 |
| 20260508190617 | 53 | 338 | 1.7 | 1.7 | 0.00 | 0.00 | 0.00 | 45 | 1010.9 |
| 20260508185718 | 52 | 334 | 3.5 | 6.1 | 0.00 | 0.00 | 0.00 | 46 | 1010.9 |
| 20260508185117 | 53 | 329 | 1.7 | 1.7 | 0.00 | 0.00 | 0.00 | 46 | 1010.9 |
| 20260508184646 | 53 | 317 | 5.2 | 7.0 | 0.00 | 0.00 | 0.00 | 43 | 1010.9 |
| 20260508184245 | 52 | 284 | 4.3 | 7.0 | 0.00 | 0.00 | 0.00 | 44 | 1010.9 |
| 20260508183646 | 53 | 9 | 9.6 | 13.0 | 0.00 | 0.00 | 0.00 | 43 | 1010.7 |
| 20260508183145 | 53 | 342 | 4.3 | 7.0 | 0.00 | 0.00 | 0.00 | 43 | 1010.9 |
| 20260508182644 | 54 | 7 | 5.2 | 8.7 | 0.00 | 0.00 | 0.00 | 43 | 1010.9 |
| 20260508181643 | 56 | 55 | 1.7 | 5.2 | 0.00 | 0.00 | 0.00 | 43 | 1010.9 |
| 20260508180644 | 53 | 321 | 1.7 | 4.3 | 0.00 | 0.00 | 0.00 | 43 | 1010.9 |
| 20260508180243 | 53 | 338 | 0.9 | 1.7 | 0.00 | 0.00 | 0.00 | 44 | 1010.9 |
| 20260508174642 | 54 | 315 | 3.5 | 4.3 | 0.00 | 0.00 | 0.00 | 42 | 1010.9 |
| 20260508174141 | 54 | 321 | 4.3 | 7.0 | 0.00 | 0.00 | 0.00 | 42 | 1010.9 |
| 20260508173643 | 53 | 296 | 4.3 | 7.0 | 0.00 | 0.00 | 0.00 | 42 | 1010.9 |
| 20260508173140 | 54 | 65 | 2.6 | 4.3 | 0.00 | 0.00 | 0.00 | 42 | 1011.0 |
| 20260508172641 | 53 | 338 | 4.3 | 7.0 | 0.00 | 0.00 | 0.00 | 44 | 1011.2 |
| 20260508172140 | 52 | 349 | 4.3 | 7.8 | 0.00 | 0.00 | 0.00 | 44 | 1010.9 |
| 20260508171641 | 52 | 356 | 3.5 | 5.2 | 0.00 | 0.00 | 0.00 | 42 | 1011.4 |
| 20260508171141 | 52 | 335 | 6.1 | 7.0 | 0.00 | 0.00 | 0.00 | 43 | 1011.2 |
| 20260508170639 | 51 | 314 | 2.6 | 4.3 | 0.00 | 0.00 | 0.00 | 45 | 1011.2 |
| 20260508163637 | 50 | 313 | 1.7 | 2.6 | 0.00 | 0.00 | 0.00 | 45 | 1011.6 |
| 20260508163136 | 50 | 295 | 2.6 | 5.2 | 0.00 | 0.00 | 0.00 | 45 | 1011.6 |
| 20260508162737 | 50 | 323 | 2.6 | 5.2 | 0.00 | 0.00 | 0.00 | 47 | 1011.4 |
| 20260508162136 | 50 | 332 | 3.5 | 6.1 | 0.00 | 0.00 | 0.00 | 45 | 1011.2 |
| 20260508161135 | 50 | 1 | 2.6 | 4.3 | 0.00 | 0.00 | 0.00 | 45 | 1011.2 |
| 20260508160135 | 51 | 1 | 0.9 | 0.9 | 0.00 | 0.00 | 0.00 | 43 | 1011.2 |
| 20260508155634 | 50 | 337 | 2.6 | 4.3 | 0.00 | 0.00 | 0.00 | 44 | 1011.2 |
| 20260508155133 | 51 | 3 | 6.1 | 8.7 | 0.00 | 0.00 | 0.00 | 43 | 1011.2 |
| 20260508154632 | 51 | 7 | 7.0 | 14.8 | 0.00 | 0.00 | 0.00 | 42 | 1011.2 |
| 20260508154134 | 50 | 344 | 0.9 | 1.7 | 0.00 | 0.00 | 0.00 | 43 | 1011.2 |
| 20260508153633 | 52 | 321 | 3.5 | 6.1 | 0.00 | 0.00 | 0.00 | 42 | 1011.2 |
| 20260508153234 | 53 | 133 | 2.6 | 6.1 | 0.00 | 0.00 | 0.00 | 41 | 1011.2 |
| 20260508152632 | 53 | 336 | 0.9 | 1.7 | 0.00 | 0.00 | 0.00 | 43 | 1010.9 |
| 20260508152133 | 52 | 313 | 2.6 | 4.3 | 0.00 | 0.00 | 0.00 | 43 | 1010.9 |
| 20260508151633 | 52 | 10 | 4.3 | 7.0 | 0.00 | 0.00 | 0.00 | 42 | 1010.9 |
| 20260508151131 | 51 | 328 | 3.5 | 6.1 | 0.00 | 0.00 | 0.00 | 42 | 1010.9 |
| 20260508150630 | 50 | 356 | 4.3 | 7.8 | 0.00 | 0.00 | 0.00 | 43 | 1010.9 |
| 20260508140126 | 49 | 269 | 4.3 | 7.0 | 0.00 | 0.00 | 0.00 | 50 | 1011.2 |
| 20260508135627 | 48 | 1 | 6.1 | 8.7 | 0.00 | 0.00 | 0.00 | 52 | 1011.2 |
| 20260508135126 | 48 | 340 | 5.2 | 7.8 | 0.00 | 0.00 | 0.00 | 51 | 1011.4 |
| 20260508134625 | 50 | 355 | 7.8 | 12.2 | 0.00 | 0.00 | 0.00 | 50 | 1011.6 |
| 20260508133626 | 48 | 335 | 0.0 | 0.9 | 0.00 | 0.00 | 0.00 | 53 | 1011.6 |
| 20260508133126 | 47 | 327 | 1.7 | 2.6 | 0.00 | 0.00 | 0.00 | 54 | 1011.6 |
| 20260508132624 | 47 | 358 | 2.6 | 7.0 | 0.00 | 0.00 | 0.00 | 54 | 1011.6 |
| 20260508132123 | 46 | 14 | 2.6 | 4.3 | 0.00 | 0.00 | 0.00 | 55 | 1011.6 |
| 20260508131622 | 47 | 358 | 2.6 | 4.3 | 0.00 | 0.00 | 0.00 | 56 | 1011.6 |
| 20260508131124 | 46 | 343 | 1.7 | 2.6 | 0.00 | 0.00 | 0.00 | 58 | 1011.6 |
| 20260508130623 | 45 | 318 | 2.6 | 4.3 | 0.00 | 0.00 | 0.00 | 58 | 1011.7 |
| 20260508130122 | 45 | 316 | 3.5 | 6.1 | 0.00 | 0.00 | 0.00 | 59 | 1011.6 |
| 20260508125621 | 45 | 314 | 1.7 | 2.6 | 0.00 | 0.00 | 0.00 | 59 | 1011.6 |
| 20260508125120 | 45 | 312 | 3.5 | 7.0 | 0.00 | 0.00 | 0.00 | 60 | 1011.6 |
| 20260508124622 | 44 | 326 | 0.9 | 1.7 | 0.00 | 0.00 | 0.00 | 59 | 1011.6 |
| 20260508124121 | 44 | 353 | 1.7 | 4.3 | 0.00 | 0.00 | 0.00 | 59 | 1011.6 |
| 20260508123621 | 44 | 318 | 4.3 | 6.1 | 0.00 | 0.00 | 0.00 | 60 | 1011.6 |
| 20260508123121 | 44 | 340 | 1.7 | 1.7 | 0.00 | 0.00 | 0.00 | 60 | 1011.6 |
| 20260508122620 | 44 | 313 | 2.6 | 6.1 | 0.00 | 0.00 | 0.00 | 61 | 1011.6 |
| 20260508122122 | 44 | 328 | 3.5 | 7.0 | 0.00 | 0.00 | 0.00 | 60 | 1011.6 |
| 20260508121718 | 44 | 323 | 2.6 | 4.3 | 0.00 | 0.00 | 0.00 | 61 | 1011.4 |
| 20260508121122 | 44 | 315 | 2.6 | 4.3 | 0.00 | 0.00 | 0.00 | 60 | 1011.6 |
| 20260508120620 | 44 | 330 | 0.9 | 0.9 | 0.00 | 0.00 | 0.00 | 61 | 1011.6 |
| 20260508120118 | 45 | 321 | 4.3 | 6.1 | 0.00 | 0.00 | 0.00 | 59 | 1011.6 |
| 20260508115617 | 46 | 321 | 2.6 | 2.6 | 0.00 | 0.00 | 0.00 | 60 | 1011.6 |
| 20260508115118 | 45 | 14 | 2.6 | 7.0 | 0.00 | 0.00 | 0.00 | 62 | 1011.6 |
| 20260508114617 | 44 | 330 | 1.7 | 2.6 | 0.00 | 0.00 | 0.00 | 62 | 1011.6 |
| 20260508114117 | 44 | 341 | 0.9 | 1.7 | 0.00 | 0.00 | 0.00 | 61 | 1011.2 |
| 20260508113621 | 44 | 322 | 3.5 | 5.2 | 0.00 | 0.00 | 0.00 | 61 | 1011.2 |
| 20260508113217 | 45 | 12 | 4.3 | 7.8 | 0.00 | 0.00 | 0.00 | 60 | 1011.2 |
| 20260508112656 | 45 | 302 | 1.7 | 1.7 | 0.00 | 0.00 | 0.00 | 63 | 1011.2 |
| 20260508102143 | 39 | 330 | 0.9 | 0.9 | 0.00 | 0.00 | 0.00 | 69 | 1010.5 |
| 20260508101641 | 39 | 336 | 0.0 | 0.9 | 0.00 | 0.00 | 0.00 | 73 | 1010.5 |
| 20260508101140 | 40 | 327 | 0.0 | 0.9 | 0.00 | 0.00 | 0.00 | 70 | 1010.1 |
| 20260508100641 | 40 | 327 | 0.9 | 0.9 | 0.00 | 0.00 | 0.00 | 70 | 1010.3 |
| 20260508100140 | 40 | 0.0 | 0.0 | 0.00 | 0.00 | 0.00 | 71 | 1010.5 | |
| 20260508095640 | 40 | 334 | 0.9 | 1.7 | 0.00 | 0.00 | 0.00 | 70 | 1010.1 |
| 20260508095138 | 39 | 329 | 0.9 | 0.9 | 0.00 | 0.00 | 0.00 | 71 | 1010.5 |
| 20260508094640 | 38 | 330 | 0.9 | 1.7 | 0.00 | 0.00 | 0.00 | 75 | 1010.3 |
| 20260508094139 | 38 | 337 | 0.9 | 0.9 | 0.00 | 0.00 | 0.00 | 75 | 1010.1 |
| 20260508093638 | 37 | 327 | 1.7 | 1.7 | 0.00 | 0.00 | 0.00 | 76 | 1010.1 |
| 20260508093137 | 37 | 335 | 0.9 | 0.9 | 0.00 | 0.00 | 0.00 | 77 | 1010.1 |
| 20260508092638 | 37 | 323 | 0.9 | 1.7 | 0.00 | 0.00 | 0.00 | 79 | 1010.1 |
| 20260508092138 | 36 | 331 | 0.9 | 0.9 | 0.00 | 0.00 | 0.00 | 80 | 1010.1 |
| 20260508091638 | 36 | 325 | 0.9 | 0.9 | 0.00 | 0.00 | 0.00 | 80 | 1010.1 |
| 20260508091136 | 35 | 336 | 0.9 | 0.9 | 0.00 | 0.00 | 0.00 | 83 | 1010.1 |
| 20260508090637 | 35 | 326 | 1.7 | 1.7 | 0.00 | 0.00 | 0.00 | 85 | 1010.1 |
| 20260508090137 | 35 | 335 | 0.9 | 0.9 | 0.00 | 0.00 | 0.00 | 82 | 1010.1 |
| 20260508085636 | 35 | 331 | 1.7 | 1.7 | 0.00 | 0.00 | 0.00 | 84 | 1010.1 |
| 20260508085137 | 35 | 323 | 1.7 | 1.7 | 0.00 | 0.00 | 0.00 | 83 | 1009.8 |
| 20260508084636 | 35 | 325 | 1.7 | 1.7 | 0.00 | 0.00 | 0.00 | 83 | 1010.0 |
| 20260508084135 | 35 | 321 | 1.7 | 1.7 | 0.00 | 0.00 | 0.00 | 81 | 1010.1 |
| 20260508083634 | 34 | 333 | 1.7 | 2.6 | 0.00 | 0.00 | 0.00 | 84 | 1010.1 |
| 20260508083135 | 34 | 324 | 1.7 | 1.7 | 0.00 | 0.00 | 0.00 | 85 | 1010.1 |
| 20260508082634 | 34 | 328 | 1.7 | 1.7 | 0.00 | 0.00 | 0.00 | 84 | 1010.1 |
| 20260508082133 | 34 | 324 | 2.6 | 2.6 | 0.00 | 0.00 | 0.00 | 84 | 1010.1 |
| 20260508081634 | 34 | 324 | 1.7 | 1.7 | 0.00 | 0.00 | 0.00 | 84 | 1010.1 |
| 20260508081134 | 33 | 324 | 2.6 | 2.6 | 0.00 | 0.00 | 0.00 | 84 | 1010.1 |
| 20260508080633 | 33 | 323 | 1.7 | 1.7 | 0.00 | 0.00 | 0.00 | 84 | 1010.1 |
| 20260508080132 | 34 | 327 | 2.6 | 2.6 | 0.00 | 0.00 | 0.00 | 84 | 1010.1 |
| 20260508075633 | 33 | 329 | 1.7 | 2.6 | 0.00 | 0.00 | 0.00 | 85 | 1010.1 |
| 20260508075132 | 33 | 326 | 1.7 | 1.7 | 0.00 | 0.00 | 0.00 | 85 | 1009.8 |
| 20260508074631 | 34 | 325 | 1.7 | 1.7 | 0.00 | 0.00 | 0.00 | 85 | 1009.8 |
| 20260508074130 | 34 | 325 | 1.7 | 1.7 | 0.00 | 0.00 | 0.00 | 85 | 1009.8 |
| 20260508073630 | 34 | 325 | 2.6 | 2.6 | 0.00 | 0.00 | 0.00 | 85 | 1009.8 |
| 20260508073131 | 34 | 323 | 1.7 | 2.6 | 0.00 | 0.00 | 0.00 | 84 | 1009.8 |
| 20260508072630 | 34 | 327 | 2.6 | 2.6 | 0.00 | 0.00 | 0.00 | 83 | 1009.8 |
| 20260508072129 | 34 | 323 | 1.7 | 1.7 | 0.00 | 0.00 | 0.00 | 85 | 1009.4 |
| 20260508071629 | 34 | 324 | 2.6 | 2.6 | 0.00 | 0.00 | 0.00 | 85 | 1009.6 |
| 20260508071130 | 34 | 324 | 2.6 | 2.6 | 0.00 | 0.00 | 0.00 | 85 | 1009.8 |
| 20260508070629 | 34 | 328 | 2.6 | 2.6 | 0.00 | 0.00 | 0.00 | 85 | 1009.8 |
| 20260508070128 | 34 | 325 | 2.6 | 2.6 | 0.00 | 0.00 | 0.00 | 84 | 1009.8 |
| 20260508065627 | 34 | 330 | 2.6 | 2.6 | 0.00 | 0.00 | 0.00 | 85 | 1009.8 |
| 20260508065127 | 34 | 326 | 2.6 | 2.6 | 0.00 | 0.00 | 0.00 | 85 | 1009.8 |
| 20260508064631 | 34 | 329 | 2.6 | 2.6 | 0.00 | 0.00 | 0.00 | 84 | 1009.8 |
| 20260508063626 | 34 | 326 | 2.6 | 2.6 | 0.00 | 0.00 | 0.00 | 83 | 1009.8 |
| 20260508063125 | 34 | 322 | 1.7 | 1.7 | 0.00 | 0.00 | 0.00 | 83 | 1009.8 |
| 20260508062627 | 34 | 331 | 2.6 | 2.6 | 0.00 | 0.00 | 0.00 | 84 | 1010.0 |
| 20260508062226 | 34 | 323 | 1.7 | 1.7 | 0.00 | 0.00 | 0.00 | 83 | 1009.8 |
| 20260508061725 | 34 | 328 | 2.6 | 2.6 | 0.00 | 0.00 | 0.00 | 84 | 1009.8 |
| 20260508061124 | 35 | 323 | 1.7 | 1.7 | 0.00 | 0.00 | 0.00 | 82 | 1009.8 |
| 20260508060628 | 34 | 327 | 1.7 | 1.7 | 0.00 | 0.00 | 0.00 | 82 | 1009.8 |
| 20260508060124 | 34 | 327 | 2.6 | 2.6 | 0.00 | 0.00 | 0.00 | 84 | 1009.8 |
| 20260508055625 | 34 | 323 | 1.7 | 1.7 | 0.00 | 0.00 | 0.00 | 84 | 1009.8 |
| 20260508055123 | 34 | 326 | 2.6 | 2.6 | 0.00 | 0.00 | 0.00 | 85 | 1010.0 |
| 20260508054123 | 34 | 331 | 2.6 | 2.6 | 0.00 | 0.00 | 0.00 | 85 | 1009.8 |
| 20260508053622 | 34 | 326 | 1.7 | 1.7 | 0.00 | 0.00 | 0.00 | 85 | 1009.8 |
| 20260508053122 | 35 | 323 | 1.7 | 1.7 | 0.00 | 0.00 | 0.00 | 84 | 1009.8 |
| 20260508052623 | 35 | 335 | 2.6 | 2.6 | 0.00 | 0.00 | 0.00 | 85 | 1009.8 |
| 20260508052122 | 35 | 326 | 1.7 | 1.7 | 0.00 | 0.00 | 0.00 | 85 | 1009.8 |
| 20260508051621 | 35 | 326 | 1.7 | 1.7 | 0.00 | 0.00 | 0.00 | 86 | 1010.0 |
| 20260508051120 | 35 | 327 | 1.7 | 1.7 | 0.00 | 0.00 | 0.00 | 86 | 1010.1 |
| 20260508050727 | 35 | 324 | 1.7 | 1.7 | 0.00 | 0.00 | 0.00 | 86 | 1010.3 |
| 20260508050123 | 35 | 327 | 1.7 | 1.7 | 0.00 | 0.00 | 0.00 | 86 | 1010.3 |
| 20260508045619 | 35 | 322 | 1.7 | 1.7 | 0.00 | 0.00 | 0.00 | 86 | 1010.5 |
| 20260508045120 | 35 | 328 | 1.7 | 1.7 | 0.00 | 0.00 | 0.00 | 85 | 1010.1 |
| 20260508044619 | 35 | 324 | 1.7 | 1.7 | 0.00 | 0.00 | 0.00 | 84 | 1010.5 |
| 20260508044119 | 35 | 331 | 0.9 | 1.7 | 0.00 | 0.00 | 0.00 | 84 | 1010.5 |
| 20260508043618 | 35 | 324 | 1.7 | 1.7 | 0.00 | 0.00 | 0.00 | 84 | 1010.5 |
| 20260508043117 | 35 | 326 | 0.9 | 0.9 | 0.00 | 0.00 | 0.00 | 84 | 1010.5 |
| 20260508042618 | 35 | 324 | 1.7 | 1.7 | 0.00 | 0.00 | 0.00 | 84 | 1010.5 |
| 20260508042117 | 35 | 324 | 0.9 | 1.7 | 0.00 | 0.00 | 0.00 | 84 | 1010.5 |
| 20260508041717 | 35 | 327 | 1.7 | 1.7 | 0.00 | 0.00 | 0.00 | 84 | 1010.5 |
| 20260508041116 | 35 | 326 | 1.7 | 1.7 | 0.00 | 0.00 | 0.00 | 83 | 1010.5 |
| 20260508040619 | 35 | 328 | 0.9 | 1.7 | 0.00 | 0.00 | 0.00 | 83 | 1010.5 |
| 20260508040147 | 36 | 327 | 0.9 | 1.7 | 0.00 | 0.00 | 0.00 | 82 | 1010.5 |
| 20260508035645 | 36 | 328 | 0.9 | 0.9 | 0.00 | 0.00 | 0.00 | 82 | 1010.5 |
| 20260508034644 | 36 | 324 | 1.7 | 1.7 | 0.00 | 0.00 | 0.00 | 82 | 1010.9 |
| 20260508033645 | 37 | 330 | 1.7 | 1.7 | 0.00 | 0.00 | 0.00 | 81 | 1010.5 |
| 20260508033143 | 36 | 331 | 1.7 | 1.7 | 0.00 | 0.00 | 0.00 | 82 | 1010.5 |
| 20260508032644 | 37 | 327 | 1.7 | 1.7 | 0.00 | 0.00 | 0.00 | 81 | 1010.7 |
| 20260508032144 | 37 | 328 | 1.7 | 1.7 | 0.00 | 0.00 | 0.00 | 81 | 1010.9 |
| 20260508031643 | 37 | 329 | 1.7 | 1.7 | 0.00 | 0.00 | 0.00 | 81 | 1010.5 |
| 20260508031142 | 37 | 324 | 0.9 | 0.9 | 0.00 | 0.00 | 0.00 | 81 | 1010.5 |
| 20260508030643 | 37 | 332 | 0.9 | 1.7 | 0.00 | 0.00 | 0.00 | 81 | 1010.5 |
| 20260508030142 | 37 | 326 | 0.9 | 0.9 | 0.00 | 0.00 | 0.00 | 80 | 1010.9 |
| 20260508025641 | 38 | 327 | 0.9 | 1.7 | 0.00 | 0.00 | 0.00 | 80 | 1010.5 |
| 20260508025141 | 38 | 332 | 0.9 | 0.9 | 0.00 | 0.00 | 0.00 | 79 | 1010.5 |
| 20260508024640 | 38 | 327 | 1.7 | 1.7 | 0.00 | 0.00 | 0.00 | 80 | 1010.9 |
| 20260508024141 | 39 | 327 | 1.7 | 1.7 | 0.00 | 0.00 | 0.00 | 78 | 1010.9 |
| 20260508023640 | 39 | 335 | 1.7 | 1.7 | 0.00 | 0.00 | 0.00 | 78 | 1010.7 |
| 20260508023140 | 39 | 326 | 1.7 | 1.7 | 0.00 | 0.00 | 0.00 | 78 | 1010.9 |
| 20260508022639 | 39 | 328 | 1.7 | 1.7 | 0.00 | 0.00 | 0.00 | 77 | 1010.9 |
| 20260508022140 | 39 | 327 | 1.7 | 1.7 | 0.00 | 0.00 | 0.00 | 78 | 1010.7 |
| 20260508021639 | 39 | 324 | 1.7 | 1.7 | 0.00 | 0.00 | 0.00 | 77 | 1010.9 |
| 20260508021139 | 39 | 324 | 1.7 | 1.7 | 0.00 | 0.00 | 0.00 | 78 | 1010.9 |
| 20260508020637 | 40 | 325 | 1.7 | 1.7 | 0.00 | 0.00 | 0.00 | 75 | 1010.9 |
| 20260508020137 | 40 | 329 | 1.7 | 1.7 | 0.00 | 0.00 | 0.00 | 75 | 1010.5 |
| 20260508015639 | 40 | 324 | 1.7 | 1.7 | 0.00 | 0.00 | 0.00 | 76 | 1010.5 |
| 20260508014636 | 40 | 334 | 1.7 | 2.6 | 0.00 | 0.00 | 0.00 | 75 | 1010.3 |
| 20260508014236 | 40 | 329 | 1.7 | 1.7 | 0.00 | 0.00 | 0.00 | 75 | 1010.5 |
| 20260508013638 | 40 | 327 | 1.7 | 1.7 | 0.00 | 0.00 | 0.00 | 76 | 1010.5 |
| 20260508013137 | 40 | 327 | 1.7 | 1.7 | 0.00 | 0.00 | 0.00 | 76 | 1010.1 |
| 20260508012235 | 41 | 325 | 1.7 | 1.7 | 0.00 | 0.00 | 0.00 | 75 | 1010.1 |
| 20260508011736 | 41 | 324 | 0.9 | 1.7 | 0.00 | 0.00 | 0.00 | 73 | 1010.0 |
| 20260508011135 | 41 | 325 | 0.9 | 0.9 | 0.00 | 0.00 | 0.00 | 72 | 1009.8 |
| 20260508010133 | 42 | 328 | 0.9 | 0.9 | 0.00 | 0.00 | 0.00 | 71 | 1009.8 |
| 20260508005634 | 42 | 328 | 0.9 | 0.9 | 0.00 | 0.00 | 0.00 | 69 | 1009.8 |
| 20260508005133 | 43 | 334 | 0.9 | 0.9 | 0.00 | 0.00 | 0.00 | 67 | 1009.8 |
| 20260508004632 | 43 | 336 | 0.9 | 0.9 | 0.00 | 0.00 | 0.00 | 69 | 1009.6 |
| 20260508004131 | 44 | 327 | 0.9 | 0.9 | 0.00 | 0.00 | 0.00 | 66 | 1009.4 |
| 20260508003633 | 44 | 328 | 0.9 | 0.9 | 0.00 | 0.00 | 0.00 | 66 | 1009.4 |
| 20260508003132 | 45 | 0.0 | 0.0 | 0.00 | 0.00 | 0.00 | 60 | 1009.8 | |
| 20260508002633 | 45 | 0.0 | 0.0 | 0.00 | 0.00 | 0.00 | 61 | 1009.4 | |
| 20260508002132 | 46 | 338 | 0.9 | 0.9 | 0.00 | 0.00 | 0.00 | 59 | 1009.4 |
| 20260508001631 | 47 | 332 | 0.0 | 0.9 | 0.00 | 0.00 | 0.00 | 55 | 1009.4 |
| 20260508001131 | 47 | 336 | 0.0 | 0.9 | 0.00 | 0.00 | 0.00 | 55 | 1009.1 |
| 20260508000630 | 48 | 0.0 | 0.0 | 0.00 | 0.00 | 0.00 | 53 | 1009.4 | |
| 20260507235631 | 49 | 324 | 1.7 | 1.7 | 0.00 | 0.00 | 0.00 | 51 | 1009.1 |
| 20260507235129 | 49 | 326 | 0.9 | 1.7 | 0.00 | 0.00 | 0.00 | 50 | 1009.1 |
| 20260507234628 | 49 | 336 | 0.9 | 0.9 | 0.00 | 0.00 | 0.00 | 49 | 1009.1 |
| 20260507234128 | 49 | 282 | 2.6 | 4.3 | 0.00 | 0.00 | 0.00 | 49 | 1009.1 |
| 20260507233629 | 50 | 352 | 2.6 | 5.2 | 0.00 | 0.00 | 0.00 | 49 | 1009.1 |
| 20260507233130 | 50 | 317 | 2.6 | 4.3 | 0.00 | 0.00 | 0.00 | 47 | 1009.1 |
| 20260507232627 | 50 | 333 | 1.7 | 1.7 | 0.00 | 0.00 | 0.00 | 49 | 1009.1 |
| 20260507232227 | 50 | 335 | 1.7 | 4.3 | 0.00 | 0.00 | 0.00 | 47 | 1008.7 |
| 20260507231625 | 50 | 346 | 3.5 | 6.1 | 0.00 | 0.00 | 0.00 | 47 | 1008.9 |
| 20260507231126 | 51 | 303 | 2.6 | 5.2 | 0.00 | 0.00 | 0.00 | 47 | 1008.7 |
| 20260507230626 | 51 | 350 | 3.5 | 4.3 | 0.00 | 0.00 | 0.00 | 47 | 1008.7 |
| 20260507220121 | 55 | 287 | 5.2 | 7.8 | 0.00 | 0.00 | 0.00 | 43 | 1008.7 |
| 20260507215622 | 53 | 323 | 2.6 | 5.2 | 0.00 | 0.00 | 0.00 | 43 | 1008.4 |
| 20260507215122 | 54 | 296 | 3.5 | 5.2 | 0.00 | 0.00 | 0.00 | 44 | 1008.7 |
| 20260507214621 | 55 | 340 | 2.6 | 7.8 | 0.00 | 0.00 | 0.00 | 44 | 1008.7 |
| 20260507214122 | 54 | 327 | 5.2 | 7.0 | 0.00 | 0.00 | 0.00 | 44 | 1008.7 |
| 20260507213619 | 55 | 309 | 2.6 | 4.3 | 0.00 | 0.00 | 0.00 | 43 | 1008.7 |
| 20260507213120 | 55 | 309 | 3.5 | 5.2 | 0.00 | 0.00 | 0.00 | 43 | 1008.7 |
| 20260507212619 | 53 | 336 | 4.3 | 7.0 | 0.00 | 0.00 | 0.00 | 43 | 1008.7 |
| 20260507212118 | 55 | 320 | 6.1 | 7.8 | 0.00 | 0.00 | 0.00 | 42 | 1008.7 |